Showing default

ZHUHAI-1 OHS-02, 43441

Orbit data source: Space-Track

ZHUHAI-1 OHS-02, 43441 is a payload satellite owned by Zhuhai Orbita (CN) in SSO that was launched on Thu, 26 Apr 2018 UTC via a CHANG ZHENG 11 launch vehicle from the Jiuquan Satellite Launch Center, China (JSC). Payload-class satellites include a variety of spacecraft equipped with specific instruments for various scientific and technological missions. These include communications satellites like Starlink; space stations such as the ISS; scientific satellites like the Hubble; Earth observation satellites from companies like Planet Labs, Umbra, and HawkEye 360; GPS; miniature CubeSats for education and research; and military/defense satellites.

Loading next visibility...
Identifier
43441, 2018-040C
Orbit
SSO
Country
Flag of CNCN / PRC
Related business
Manufacturer
Harbin
Mission
Operational Commercial Imaging
Bus & Motor
OHS-1, Unknown motor
Mass
~69 kg wet, ~69 kg dry
Launch date (UTC)
2018-04-26 (8 years ago)
Launch vehicle
CHANG ZHENG 11
Launch site
Jiuquan Satellite Launch Center, China (JSC)
Object type
Payload
Rocket body
Debris
Shape & HBR
Box, 0.5 m
Radar Cross Section
0.280 m², Medium (>0.1 m² and < 1m²)

Expand to show TLE details & history
Last TLE update: 22 hours ago

TLE from 22 hours ago
0 ZHUHAI-1 OHS-02
1 43441U 18040C   26172.54467840  .00006419  00000-0  25252-3 0  9994
2 43441  97.0372 196.4598 0008587 202.6979 157.3882 15.25933837114940
Epoch: 2026-06-21T13:04Z
TLE epoch observation values (Epoch: 2026-06-21T13:04:20.213Z)
Latitude
-0.00002°
Longitude
90.63216°
Altitude
496.536 km
Speed
7.613 km/s
True Right ascension
13h 05m 50s
True Declination
0° 00' 00"
Sunlit
Object was in daylight at epoch
Visualization orbit readout
Latitude
Unknown
Longitude
Unknown
Altitude
Unknown
Speed
Unknown
Apparent Right ascension
Unknown
Apparent Declination
Unknown
Sunlit
N/A
Visualization observer readout
Local Sidereal Time
21:37:48
Azimuth
Unknown
Elevation
Unknown
Doppler factor
Unknown
Orbital elements
Apogee altitude
490.819 km
Perigee altitude
479.032 km
Semi-major axis
6,863.062 km
Eccentricity
0.00086
Inclination
97.0372°
RAAN
196.4598°
Arg. of periapsis
202.6979°
True anomaly
157.426°
Mean anomaly
157.3882°
Eccentric anomaly
157.4071°
Mean motion
3.81739 °/min
Orbital period
94.31 mins
BSTAR
0.00025252
Loading maneuver chart data...
Computing Atmospheric mass density...
Loading historical data...
Loading historical data...
Loading historical data...
Loading historical data...
Loading historical data...
Loading historical data...
Loading historical data...

Documentation

Showing up to 5 results
|